Location: Unspecified
(0.0000°N, 0.0000°E)
Time: 05:23:29
(UTC+01:00)

deb Ariane - Visible Passes

Search period start: 26 October 2014 00:00
Search period end: 04 November 2014 23:00
Orbit: 141 x 13881 km, 7.5° (Epoch: 25 October)

Date Brightness Start Highest point End Pass type
(mag) Time Alt. Az. Time Alt. Az. Time Alt. Az.
26 Oct 7.8 00:15:37 10° WSW 01:08:05 52° E 02:55:28 10° E visible
26 Oct 9.6 04:24:49 32° W 06:20:32 81° N 07:05:08 10° E visible
26 Oct 6.2 20:30:04 10° WSW 20:36:26 60° S 20:48:48 31° ESE visible
27 Oct 8.6 01:01:55 10° W 01:47:28 86° SSE 04:04:27 10° E visible
27 Oct 8.9 06:12:14 10° W 08:30:20 75° N 08:49:49 10° ENE visible
27 Oct 7.3 22:09:42 10° WSW 22:21:56 72° S 00:09:02 10° E visible
28 Oct 9.4 03:20:22 54° W 04:29:18 86° NNW 05:53:01 10° E visible
28 Oct 5.3 19:17:56 10° WSW 19:21:45 48° S 19:37:12 10° E visible
28 Oct 7.9 23:45:31 10° WSW 00:35:01 61° E 02:31:07 10° E visible
29 Oct 9.6 04:49:34 24° W 06:53:58 79° N 07:30:47 10° E visible
29 Oct 6.4 20:48:00 10° WSW 20:54:58 62° S 21:05:08 37° ESE visible
30 Oct 8.7 01:17:59 10° W 02:07:18 88° SSE 04:19:04 10° E visible
30 Oct 8.8 06:29:00 10° W 08:42:24 74° N 09:00:49 10° E visible
30 Oct 7.3 22:13:25 10° WSW 22:25:32 73° S 00:09:28 10° E visible
31 Oct 9.3 03:20:29 54° W 04:25:24 85° NNW 05:51:27 10° E visible
31 Oct 5.2 19:09:36 10° WSW 19:13:04 43° SSE 19:26:03 10° E visible
31 Oct 7.8 23:34:15 10° WSW 00:23:27 56° E 02:11:41 10° E visible
01 Nov 9.6 04:35:37 29° W 06:30:30 79° N 07:14:01 10° E visible
01 Nov 6.0 20:24:32 10° WSW 20:30:18 58° SSE 20:41:43 28° ESE visible
02 Nov 8.5 00:50:32 10° W 01:34:10 84° E 03:44:40 10° E visible
02 Nov 9.2 05:47:02 10° W 08:04:49 76° N 08:28:47 10° E visible
02 Nov 6.8 21:34:02 10° WSW 21:43:01 69° SSE 22:52:14 10° E visible
03 Nov 9.2 02:39:23 70° W 03:07:53 87° NNW 05:02:12 10° E visible
03 Nov 7.3 22:37:58 10° WSW 23:29:22 37° E 00:42:12 10° E visible
04 Nov 9.3 03:38:53 48° W 04:52:34 82° N 06:09:15 10° E visible
04 Nov 5.2 19:15:26 10° WSW 19:18:53 41° SSE 19:31:30 10° E visible
